FW4000 Weather Reports


time (UTC)temp
F
wind
direction
speed
knots
gust
knots
rain 1hr
in
rain 24hr
in
rain mn
in
humidity
%
barometer
mb
20260505101622 55 19 1.7 3.5 0.02 3.76 0.06 92 1010.7
20260505100127 55 17 0.9 2.6 0.02 3.76 0.06 92 1010.7
20260505094507 55 360 0.9 4.3 0.01 3.75 0.05 92 1010.6
20260505093020 55 19 1.7 4.3 0.01 3.75 0.05 92 1010.6
20260505091554 55 19 2.6 5.2 0.00 3.74 0.04 92 1010.4
20260505090055 55 360 2.6 4.3 0.00 3.74 0.04 92 1010.3
20260505084522 55 360 0.0 2.6 0.00 3.74 0.04 92 1010.2
20260505083109 55 360 1.7 4.3 0.00 3.74 0.04 92 1010.2
20260505081623 55 360 2.6 4.3 0.00 3.74 0.04 92 1010.2
20260505080113 55 360 1.7 4.3 0.00 3.74 0.04 93 1010.1
20260505074503 55 18 0.9 1.7 0.00 3.74 0.04 93 1010.1
20260505073018 55 17 0.0 1.7 0.00 3.74 0.04 94 1010.2
20260505071524 55 19 0.9 2.6 0.00 3.74 0.04 95 1010.2
20260505070128 54 19 0.9 2.6 0.00 3.74 0.04 95 1010.2
20260505064620 54 19 1.7 2.6 0.00 3.74 0.04 95 1010.1
20260505063126 54 19 0.0 2.6 0.00 3.74 0.04 95 1010.2
20260505061634 54 17 0.9 1.7 0.00 3.74 0.04 95 1010.0
20260505060123 54 17 0.9 1.7 0.00 3.74 0.04 95 1009.9
20260505054632 54 18 0.9 2.6 0.00 3.74 0.04 95 1009.9
20260505053019 54 17 0.0 3.5 0.01 3.74 0.04 96 1009.8
20260505051535 54 17 0.9 2.6 0.01 3.74 0.04 95 1009.8
20260505050104 54 17 0.9 3.5 0.01 3.74 0.04 95 1009.9
20260505041639 54 18 0.9 5.2 0.02 3.73 0.03 95 1010.4
20260505040127 54 19 2.6 6.1 0.02 3.73 0.03 95 1010.8
20260505034628 54 360 0.9 6.1 0.01 3.72 0.02 95 1010.9
20260505033002 53 17 1.7 4.3 0.00 3.72 0.02 95 1010.9
20260505031508 54 18 0.9 3.5 0.00 3.72 0.02 95 1011.2
20260505030026 54 17 1.7 2.6 0.00 3.72 0.02 95 1011.3
20260505024601 54 17 0.9 4.3 0.00 3.72 0.02 95 1011.4
20260505023116 54 18 0.9 3.5 0.01 3.72 0.02 95 1011.5
20260505021503 54 17 1.7 2.6 0.01 3.72 0.02 95 1011.4
20260505020002 54 17 1.7 4.3 0.01 3.72 0.02 95 1011.6
20260505014506 53 18 1.7 3.5 0.01 3.72 0.02 95 1011.3
20260505013012 54 17 2.6 6.1 0.00 3.71 0.01 95 1011.3
20260505011512 54 17 2.6 4.3 0.00 3.71 0.01 95 1011.3
20260505010019 54 17 1.7 3.5 0.01 3.71 0.01 94 1011.5
20260505004519 54 17 0.9 3.5 0.01 3.71 0.01 94 1011.8
20260505003011 54 17 1.7 4.3 0.01 3.71 0.01 94 1012.2
20260505001635 54 17 1.7 3.5 0.01 3.71 0.01 94 1012.3
20260505000001 54 17 1.7 3.5 0.00 3.70 0.00 94 1012.4
20260504234626 54 17 1.7 2.6 0.00 3.70 0.00 94 1012.7
20260504233109 54 18 0.9 2.6 0.00 3.70 0.00 94 1012.7
20260504231623 54 17 2.6 4.3 0.00 3.70 0.00 93 1012.4
20260504230005 55 17 2.6 4.3 0.00 3.70 0.00 93 1012.5
20260504224514 54 17 1.7 2.6 0.00 3.70 0.00 93 1012.6
20260504223019 54 18 1.7 3.5 0.00 3.70 0.00 94 1012.6
20260504221524 54 17 0.9 2.6 0.00 3.70 0.00 94 1012.2
20260504220123 54 18 0.9 1.7 0.00 3.70 0.00 94 1012.2
20260504214611 54 360 0.9 3.5 0.00 3.70 3.70 94 1012.2
20260504213118 54 17 0.9 3.5 0.00 3.70 3.70 94 1012.3
20260504211629 54 17 1.7 4.3 0.00 3.70 3.70 94 1012.2
20260504210136 54 18 2.6 4.3 0.00 3.70 3.70 94 1012.6
20260504204634 54 17 1.7 3.5 0.00 3.70 3.70 94 1012.6
20260504203012 54 18 0.9 2.6 0.00 3.70 3.70 94 1012.7
20260504201512 54 17 0.9 1.7 0.00 3.70 3.70 94 1012.9
20260504200033 54 17 1.7 3.5 0.00 3.70 3.70 94 1013.1
20260504194522 54 17 1.7 3.5 0.00 3.70 3.70 94 1013.1
20260504193108 54 17 1.7 4.3 0.00 3.70 3.70 94 1013.0
20260504191601 55 18 1.7 3.5 0.00 3.70 3.70 93 1013.3
20260504190112 55 17 0.9 3.5 0.00 3.70 3.70 93 1013.5
20260504184617 55 17 0.9 4.3 0.01 3.70 3.70 93 1013.5
20260504183111 55 18 0.0 4.3 0.01 3.70 3.70 93 1013.6
20260504181611 55 17 1.7 4.3 0.01 3.70 3.70 93 1013.7
20260504180123 55 360 2.6 6.1 0.01 3.70 3.70 93 1013.9
20260504174624 55 18 1.7 3.5 0.00 3.69 3.69 92 1014.0
20260504173131 55 17 1.7 6.1 0.00 3.69 3.69 92 1014.0
20260504171633 55 18 0.9 5.2 0.01 3.69 3.69 92 1014.0
20260504160106 55 360 5.2 10.4 2.11 3.61 3.61 92 1014.5
20260504140129 54 18 2.6 6.1 0.06 1.10 1.10 93 1015.5
20260504130113 54 18 2.6 5.2 0.10 1.05 1.05 93 1015.7
20260504110108 55 360 4.3 7.8 0.01 0.09 0.01 90 1015.8